When you browse on this site, cookies collect data to enhance your experience and personalize the content and advertising you see.
Visit our Privacy Policy to learn more. By continuing to use the site, you agree to this use of cookies and data.
  • In France
  • List of Countries
  • For 7 days
  • Water Temperature
  • Satellite Maps
  • Weather Map
  • Weather Widgets
  • user-avatar
    Login

    Hourly Weather Kavarna

    Today, 21 March, Thursday

    Time Temperature Precipitation Wind Pressure Humidity
    00:00 +8°C° 0 mm 5 mps 771 mmHg 76%
    01:00 +7°C° 0 mm 6 mps 771 mmHg 77%
    02:00 +6°C° 0 mm 7 mps 772 mmHg 77%
    03:00 +5°C° 0 mm 7 mps 772 mmHg 77%
    04:00 +5°C° 0 mm 7 mps 772 mmHg 77%
    05:00 +5°C° 0 mm 7 mps 772 mmHg 77%
    06:00 +5°C° 0 mm 7 mps 772 mmHg 74%
    07:00 +5°C° 0 mm 7 mps 772 mmHg 71%
    08:00 +7°C° 0 mm 6 mps 773 mmHg 66%
    09:00 +8°C° 0 mm 6 mps 773 mmHg 62%
    10:00 +8°C° 0 mm 6 mps 773 mmHg 58%
    11:00 +9°C° 0 mm 6 mps 773 mmHg 55%
    12:00 +10°C° 0 mm 5 mps 773 mmHg 53%
    13:00 +10°C° 0 mm 5 mps 773 mmHg 51%
    14:00 +11°C° 0 mm 4 mps 773 mmHg 49%
    15:00 +11°C° 0 mm 4 mps 772 mmHg 52%
    16:00 +10°C° 0 mm 4 mps 772 mmHg 54%
    17:00 +10°C° 0 mm 4 mps 772 mmHg 57%
    18:00 +9°C° 0 mm 3 mps 772 mmHg 60%
    19:00 +8°C° 0 mm 2 mps 772 mmHg 64%
    20:00 +8°C° 0 mm 1 mps 772 mmHg 67%
    21:00 +7°C° 0 mm 2 mps 772 mmHg 68%
    22:00 +7°C° 0 mm 2 mps 772 mmHg 68%
    23:00 +7°C° 0 mm 2 mps 772 mmHg 69%

    Tomorrow, 22 March, Friday

    Time Temperature Precipitation Wind Pressure Humidity
    00:00 +7°C° 0 mm 2 mps 772 mmHg 69%
    01:00 +7°C° 0 mm 3 mps 772 mmHg 69%
    02:00 +7°C° 0 mm 3 mps 772 mmHg 69%
    03:00 +7°C° 0 mm 3 mps 772 mmHg 67%
    04:00 +7°C° 0 mm 3 mps 772 mmHg 66%
    05:00 +7°C° 0 mm 3 mps 771 mmHg 64%
    06:00 +8°C° 0 mm 3 mps 771 mmHg 64%
    07:00 +8°C° 0 mm 3 mps 772 mmHg 63%
    08:00 +9°C° 0 mm 3 mps 772 mmHg 63%
    09:00 +10°C° 0 mm 3 mps 771 mmHg 59%
    10:00 +13°C° 0 mm 2 mps 771 mmHg 56%
    11:00 +14°C° 0 mm 2 mps 771 mmHg 52%
    12:00 +14°C° 0 mm 2 mps 771 mmHg 52%
    13:00 +14°C° 0 mm 2 mps 770 mmHg 52%
    14:00 +15°C° 0 mm 2 mps 770 mmHg 51%
    15:00 +14°C° 0 mm 2 mps 770 mmHg 54%
    16:00 +13°C° 0 mm 3 mps 769 mmHg 57%
    17:00 +12°C° 0 mm 3 mps 769 mmHg 59%
    18:00 +11°C° 0 mm 3 mps 769 mmHg 62%
    19:00 +11°C° 0 mm 3 mps 769 mmHg 65%
    20:00 +10°C° 0 mm 3 mps 769 mmHg 68%
    21:00 +10°C° 0 mm 3 mps 768 mmHg 66%
    22:00 +10°C° 0 mm 4 mps 768 mmHg 64%
    23:00 +10°C° 0 mm 4 mps 768 mmHg 63%

    Day after tomorrow, 23 March, Saturday

    Time Temperature Precipitation Wind Pressure Humidity
    00:00 +10°C° 0 mm 4 mps 768 mmHg 65%
    01:00 +10°C° 0 mm 5 mps 768 mmHg 67%
    02:00 +10°C° 0 mm 5 mps 768 mmHg 69%
    03:00 +9°C° 0 mm 5 mps 768 mmHg 74%
    04:00 +8°C° 0 mm 5 mps 767 mmHg 78%
    05:00 +7°C° 0 mm 5 mps 767 mmHg 83%
    06:00 +8°C° 0 mm 5 mps 767 mmHg 77%
    07:00 +10°C° 0 mm 4 mps 767 mmHg 71%
    08:00 +10°C° 0 mm 4 mps 768 mmHg 65%
    09:00 +10°C° 0 mm 4 mps 768 mmHg 61%
    10:00 +9°C° 0 mm 5 mps 768 mmHg 57%
    11:00 +10°C° 0 mm 5 mps 768 mmHg 54%
    12:00 +10°C° 0 mm 5 mps 768 mmHg 48%
    13:00 +12°C° 0 mm 5 mps 767 mmHg 43%
    14:00 +12°C° 0 mm 5 mps 767 mmHg 37%
    15:00 +12°C° 0 mm 4 mps 767 mmHg 37%
    16:00 +12°C° 0 mm 3 mps 767 mmHg 36%
    17:00 +12°C° 0 mm 3 mps 766 mmHg 35%
    18:00 +10°C° 0 mm 2 mps 767 mmHg 39%
    19:00 +9°C° 0 mm 2 mps 767 mmHg 42%
    20:00 +8°C° 0 mm 2 mps 767 mmHg 45%
    21:00 +8°C° 0 mm 2 mps 767 mmHg 47%
    22:00 +7°C° 0 mm 2 mps 767 mmHg 49%
    23:00 +7°C° 0 mm 3 mps 767 mmHg 51%

    24 March, Sunday

    Time Temperature Precipitation Wind Pressure Humidity
    00:00 +5°C° 0 mm 4 mps 767 mmHg 53%
    01:00 +5°C° 0 mm 4 mps 767 mmHg 55%
    02:00 +5°C° 0 mm 5 mps 767 mmHg 57%
    03:00 +5°C° 0 mm 5 mps 767 mmHg 59%
    04:00 +3°C° 0 mm 5 mps 767 mmHg 61%
    05:00 +3°C° 0 mm 5 mps 767 mmHg 64%
    06:00 +5°C° 0 mm 5 mps 767 mmHg 62%
    07:00 +5°C° 0 mm 5 mps 767 mmHg 61%
    08:00 +6°C° 0 mm 4 mps 767 mmHg 59%
    09:00 +7°C° 0 mm 4 mps 767 mmHg 56%
    10:00 +8°C° 0 mm 4 mps 767 mmHg 52%
    11:00 +10°C° 0 mm 3 mps 767 mmHg 48%
    12:00 +10°C° 0 mm 3 mps 767 mmHg 47%
    13:00 +11°C° 0 mm 3 mps 767 mmHg 47%
    14:00 +11°C° 0 mm 3 mps 766 mmHg 46%
    15:00 +10°C° 0 mm 3 mps 766 mmHg 51%
    16:00 +10°C° 0 mm 3 mps 766 mmHg 56%
    17:00 +8°C° 0 mm 4 mps 765 mmHg 62%
    18:00 +8°C° 0 mm 3 mps 765 mmHg 66%
    19:00 +7°C° 0 mm 3 mps 765 mmHg 71%
    20:00 +5°C° 0 mm 3 mps 765 mmHg 76%
    21:00 +5°C° 0 mm 3 mps 765 mmHg 76%
    22:00 +5°C° 0 mm 3 mps 765 mmHg 76%
    23:00 +5°C° 0 mm 3 mps 765 mmHg 77%

    25 March, Monday

    Time Temperature Precipitation Wind Pressure Humidity
    00:00 +5°C° 0 mm 3 mps 765 mmHg 76%
    01:00 +5°C° 0 mm 4 mps 765 mmHg 76%
    02:00 +5°C° 0 mm 4 mps 764 mmHg 76%
    03:00 +5°C° 0 mm 4 mps 764 mmHg 75%
    04:00 +5°C° 0 mm 4 mps 764 mmHg 75%
    05:00 +5°C° 0 mm 4 mps 763 mmHg 74%
    06:00 +6°C° 0 mm 4 mps 763 mmHg 71%
    07:00 +7°C° 0 mm 4 mps 763 mmHg 68%
    08:00 +8°C° 0 mm 4 mps 763 mmHg 65%
    09:00 +10°C° 0 mm 4 mps 763 mmHg 60%
    10:00 +12°C° 0 mm 5 mps 763 mmHg 55%
    11:00 +13°C° 0 mm 5 mps 762 mmHg 49%
    12:00 +14°C° 0 mm 6 mps 762 mmHg 48%
    13:00 +14°C° 0 mm 6 mps 761 mmHg 48%
    14:00 +15°C° 0 mm 6 mps 761 mmHg 47%
    15:00 +14°C° 0 mm 6 mps 761 mmHg 51%
    16:00 +12°C° 0 mm 7 mps 760 mmHg 55%
    17:00 +11°C° 0 mm 7 mps 760 mmHg 58%
    18:00 +12°C° 0 mm 5 mps 760 mmHg 63%
    19:00 +11°C° 0 mm 4 mps 760 mmHg 67%
    20:00 +10°C° 0 mm 2 mps 760 mmHg 71%
    21:00 +9°C° 0.1 mm 3 mps 760 mmHg 77%
    22:00 +8°C° 0.1 mm 4 mps 760 mmHg 82%
    23:00 +7°C° 0.1 mm 5 mps 760 mmHg 87%

    26 March, Tuesday

    Time Temperature Precipitation Wind Pressure Humidity
    00:00 +7°C° 0.3 mm 5 mps 760 mmHg 89%
    01:00 +6°C° 0.3 mm 5 mps 760 mmHg 92%
    02:00 +6°C° 0.3 mm 5 mps 760 mmHg 94%
    03:00 +6°C° 0 mm 5 mps 760 mmHg 92%
    04:00 +6°C° 0 mm 5 mps 760 mmHg 91%
    05:00 +6°C° 0 mm 4 mps 760 mmHg 89%
    06:00 +6°C° 0 mm 5 mps 760 mmHg 86%
    07:00 +6°C° 0 mm 5 mps 760 mmHg 84%
    08:00 +7°C° 0 mm 5 mps 760 mmHg 81%
    09:00 +7°C° 0 mm 4 mps 760 mmHg 75%
    10:00 +9°C° 0 mm 3 mps 760 mmHg 70%
    11:00 +10°C° 0 mm 2 mps 760 mmHg 65%
    12:00 +10°C° 0 mm 2 mps 759 mmHg 61%
    13:00 +12°C° 0 mm 2 mps 759 mmHg 58%
    14:00 +12°C° 0 mm 2 mps 758 mmHg 54%
    15:00 +11°C° 0 mm 3 mps 758 mmHg 58%
    16:00 +11°C° 0 mm 4 mps 757 mmHg 62%
    17:00 +9°C° 0 mm 5 mps 757 mmHg 66%
    18:00 +9°C° 0.1 mm 5 mps 757 mmHg 66%
    19:00 +9°C° 0.1 mm 5 mps 757 mmHg 66%
    20:00 +9°C° 0.1 mm 6 mps 757 mmHg 66%
    21:00 +8°C° 0 mm 6 mps 757 mmHg 64%
    22:00 +6°C° 0 mm 7 mps 756 mmHg 62%
    23:00 +6°C° 0 mm 8 mps 756 mmHg 61%
    Show more